Location: Meadowbank Aerodrome
(65.0250°N, 96.0705°W)
Time: 01:53:24
(UTC-05:00)

Cosmos 2221 - Visible Passes

Search period start: 29 July 2015 00:00
Search period end: 08 August 2015 00:00
Orbit: 594 x 620 km, 82.5° (Epoch: 28 July)

Date Brightness Start Highest point End Pass type
(mag) Time Alt. Az. Time Alt. Az. Time Alt. Az.
02 Aug 5.3 02:25:04 10° E 02:26:30 12° ENE 02:28:03 10° NE visible
03 Aug 5.0 02:37:19 10° ESE 02:39:51 16° E 02:42:28 10° NE visible
04 Aug 4.7 02:50:04 10° SE 02:53:14 21° E 02:56:30 10° NE visible
07 Aug 5.0 01:54:58 10° ESE 01:56:55 13° ENE 01:59:01 10° NE visible
